Hinkle, KY (40953)

3:30 AM EST on December 28, 2014 (GMT -0500)
liford's | Change Station
CLOSE
Current Station
Personal Weather Station
Location: Barbourville, KY
Elevation: 1066 ft
Nearby Weather Stations

Elev 1066 ft 36.84 °N, 83.85 °W | Updated 6 minutes ago

Overcast
Overcast
46.2 °F
Feels Like 46 °F
N
0.0
Wind Variable Wind from East

Today
High -- | Low -- °F
--% Chance of Precip.
Yesterday
High -- | Low -- °F
Precip. -- in
7:47 AM 5:26 PM
Waxing Crescent, 45% visible
Pressure 30.07 in
Visibility 10.0 miles
Clouds Overcast 2200 ft
Windchill 46 °F
Dew Point 46 °F
Humidity 99%
Rainfall 0.22 in
Snow Depth Not available.
UV 0 out of 12
Pollen .10 out of 12
Air Quality Not available.
Flu Activity Not available.
METAR K1A6 280815Z AUTO 00000KT 10SM DZ OVC022 08/08 A3007 RMK AO2 T00820081

More Conditions Fewer Conditions

Pressure 30.07 in
Visibility 10.0 miles
Clouds Overcast 2200 ft
Windchill 46 °F
Dew Point 46 °F
Humidity 99%
Rainfall 0.22 in
Snow Depth Not available.
UV 0 out of 12
Pollen .10 out of 12
Air Quality Not available.
Flu Activity Not available.
METAR K1A6 280815Z AUTO 00000KT 10SM DZ OVC022 08/08 A3007 RMK AO2 T00820081

More Conditions Fewer Conditions

10-Day Weather Forecast

Almanac

Astronomy

Dec. 28, 2014 Rise Set
Actual Time
Civil Twilight
Nautical Twilight
Astronomical Twilight
Moon
Length of Visible Light
Length of Day
Tomorrow will be .
, % of the Moon is Illuminated

Today's Extremes

State Highs State Lows

Community

WunderPhotos

Upload Photos

1,781,210 photos uploaded!

WunderBlogs® & News

Nearby

Air Quality

  Air Quality AQ Index Pollutant
Not available.

Snow Depth

Station Depth Elevation

Earthquake Activity

City Distance Mag. Time & Date
Minimum magnitude displayed is 2.5.

Coastal Water Temperatures

Place Temperature

Nearby Weather Stations